Location: �bnet
(46.9957°N, 8.4908°E)
Time: 15:43:46
(UTC+00:00)

Cosmos 1833 Rocket - Pass Details

Date: 11 May 2021
Orbit: 831 x 841 km, 71.0° (Epoch: 17 June)

Event Time Altitude Azimuth Distance (km) Brightness Sun altitude
Rises 20:55:48 0° 330° (NNW) 3,407 7.6 -17.0°
Reaches altitude 10° 20:58:17 10° 327° (NNW) 2,468 6.5 -17.3°
Maximum altitude 21:03:50 60° 249° (WSW) 958 3.0 -17.8°
Enters shadow 21:06:58 26° 178° (S) 1,600 3.7 -18.1°
